Location: STAR School
(35.3054°N, 111.2976°W)
Time: 10:43:57
(UTC-07:00)

Transit 2A Rocket - Pass Details

Date: 28 May 2019
Orbit: 586 x 917 km, 66.7° (Epoch: 18 June)

Event Time Altitude Azimuth Distance (km) Brightness Sun altitude
Rises 01:18:25 0° 339° (NNW) 3,364 9.0 -31.7°
Reaches altitude 10° 01:21:06 10° 346° (NNW) 2,376 8.2 -31.6°
Enters shadow 01:26:09 43° 54° (NE) 1,040 5.9 -31.3°
